FW9511 Weather Reports


time (UTC)temp
C
wind
direction
speed
KPH
gust
KPH
rain 1hr
cm
rain 24hr
cm
rain mn
cm
humidity
%
barometer
mb
20260505051544 5 213 14.5 22.5 0.00 0.51 0.00 92 1008.2
20260505041539 5 211 9.7 14.5 0.00 0.53 0.00 90 1007.3
20260505040047 5 205 9.7 17.7 0.00 0.53 0.00 90 1007.2
20260505034601 5 200 12.9 20.9 0.00 0.61 0.00 90 1006.9
20260505033042 5 223 12.9 22.5 0.00 0.61 0.00 90 1006.7
20260505031546 5 213 9.7 20.9 0.00 0.61 0.00 89 1006.5
20260505030104 6 241 11.3 20.9 0.00 0.61 0.00 88 1006.4
20260505024542 6 193 16.1 32.2 0.00 0.69 0.61 87 1006.1
20260505023045 6 228 17.7 29.0 0.00 0.69 0.61 87 1005.9
20260505021540 6 203 16.1 27.4 0.00 0.69 0.61 86 1005.7
20260505014546 7 226 12.9 24.1 0.00 0.69 0.61 83 1005.4
20260505013044 7 201 12.9 27.4 0.00 0.69 0.61 82 1005.5
20260505011546 7 174 12.9 27.4 0.00 0.69 0.61 81 1005.6
20260505010057 7 218 16.1 25.7 0.00 0.69 0.61 80 1005.4
20260505004557 7 207 12.9 24.1 0.00 0.76 0.61 79 1005.1
20260505003037 8 189 8.0 17.7 0.00 0.76 0.61 77 1005.2
20260505001540 8 199 9.7 20.9 0.00 0.76 0.61 76 1005.1
20260505000042 8 208 17.7 27.4 0.00 0.76 0.61 74 1005.2
20260504234540 8 229 11.3 20.9 0.00 0.84 0.61 72 1004.7
20260504233038 8 213 9.7 24.1 0.00 0.84 0.61 74 1004.4
20260504231544 8 184 12.9 25.7 0.00 0.84 0.61 71 1004.4
20260504230038 10 210 14.5 27.4 0.00 0.84 0.61 63 1004.0
20260504224544 12 199 20.9 33.8 0.00 1.22 0.61 50 1003.7
20260504223039 12 231 17.7 46.7 0.00 1.22 0.61 50 1003.5
20260504221554 12 208 19.3 45.1 0.00 1.22 0.61 49 1003.6
20260504220043 12 242 25.7 48.3 0.00 1.22 0.61 47 1003.2
20260504214543 12 248 25.7 48.3 0.00 1.68 0.61 48 1003.2
20260504213043 12 230 25.7 41.8 0.00 1.68 0.61 48 1003.1
20260504211538 12 248 25.7 43.5 0.00 1.68 0.61 49 1002.8
20260504210046 12 245 33.8 51.5 0.00 1.68 0.61 51 1002.9
20260504204537 12 261 19.3 54.7 0.00 1.98 0.61 54 1002.5
20260504203044 12 233 33.8 61.2 0.00 1.98 0.61 51 1002.4
20260504201538 12 208 27.4 64.4 0.00 1.98 0.61 55 1002.1
20260504200038 12 234 33.8 56.3 0.00 1.98 0.61 59 1001.6
20260504194542 13 233 24.1 56.3 0.00 2.11 0.61 61 1001.4
20260504193044 12 247 30.6 51.5 0.00 2.11 0.61 62 1000.9
20260504191607 12 258 17.7 57.9 0.00 2.11 0.61 64 1000.9
20260504190040 12 234 19.3 48.3 0.00 2.11 0.61 64 1000.8
20260504184549 12 268 30.6 49.9 0.00 2.18 0.61 67 1000.7
20260504183038 11 241 24.1 51.5 0.00 2.18 0.61 69 1000.8
20260504181544 11 281 19.3 56.3 0.00 2.18 0.61 73 1000.6
20260504180043 10 216 20.9 56.3 0.00 2.18 0.61 77 1000.6
20260504174538 10 233 32.2 74.0 0.00 2.18 0.61 77 1000.6
20260504173038 10 239 27.4 67.6 0.00 2.18 0.61 77 1000.3
20260504171541 9 261 38.6 69.2 0.00 2.18 0.61 77 1000.1
20260504081542 2 220 35.4 59.5 0.03 1.85 0.28 97 981.6